Regional Weather Roundup
Issued by NWS

Home | Current Version | Previous Version | Graphics & Text | Print | Product List | Glossary On
Versions: 1 2 3 4 5 6 7 8 9 10 11 12 13 14 15 16 17 18 19 20 21 22 23 24 25 26 27 28 29 30 31 32 33 34 35 36 37 38 39 40 41 42 43 44 45 46 47 48 49 50
000
ASUS45 KCYS 261210
RWRWY

WYOMING REGIONAL WEATHER ROUNDUP
NATIONAL WEATHER SERVICE CHEYENNE WY
600 AM MDT SAT JUL 26 2014

NOTE:  "FAIR" INDICATES FEW OR NO CLOUDS BELOW 12,000 FEET
WITH NO SIGNIFICANT WEATHER AND/OR OBSTRUCTIONS TO VISIBILITY.

WYZ001-261300-
YELLOWSTONE NATIONAL PARK

CITY           SKY/WX    TMP DP  RH WIND       PRES   REMARKS
LK YELLOWSTONE   N/A     33  29  85 NW3       30.35R
6HR MIN TEMP:  33; 6HR MAX TEMP:  42;

W YELLOWSTONE  NOT AVBL

$$
WYZ002>013-054>058-071-098>099-261300-
NORTHERN WYOMING

CITY           SKY/WX    TMP DP  RH WIND       PRES   REMARKS
JACKSON        CLEAR     37  30  75 N3        30.26R
CODY           NOT AVBL
GREYBULL       CLEAR     57  33  40 N3        30.08R
6HR MIN TEMP:  56; 6HR MAX TEMP:  76;

WORLAND        CLEAR     55  28  35 S10       30.10R
6HR MIN TEMP:  54; 6HR MAX TEMP:  70;

SHERIDAN       CLEAR     52  36  54 VRB3      30.12R
6HR MIN TEMP:  51; 6HR MAX TEMP:  64;

BUFFALO        CLEAR     58  28  32 NW7       30.17R
6HR MIN TEMP:  54; 6HR MAX TEMP:  70;

GILLETTE       CLEAR     49  33  54 CALM      30.11R
6HR MIN TEMP:  47; 6HR MAX TEMP:  65;

HULETT         FAIR      59  34  38 MISG      30.11
NEWCASTLE      FAIR      63  32  31 NW12      30.04

$$
WYZ014>020-022>026-101>103-261300-
CENTRAL WYOMING

CITY           SKY/WX    TMP DP  RH WIND       PRES   REMARKS
BIG PINEY      PTCLDY    43  25  49 NW7       30.30R
6HR MIN TEMP:  41; 6HR MAX TEMP:  52;

PINEDALE       MOSUNNY   41  32  70 NW7       30.31R
DUBOIS         FAIR      45  21  39 NW7       30.27R
LANDER         CLEAR     57  28  33 NW5       30.15R
6HR MIN TEMP:  52; 6HR MAX TEMP:  71;

RIVERTON       PTCLDY    60  25  26 N8        30.16R
6HR MIN TEMP:  57; 6HR MAX TEMP:  66;

CASPER         CLEAR     48  34  58 NW7       30.16R
6HR MIN TEMP:  47; 6HR MAX TEMP:  70;

DOUGLAS        CLEAR     56  41  57 NW9       30.14R
6HR MIN TEMP:  56; 6HR MAX TEMP:  69;


$$
WYZ021-027>030-104>119-261300-
SOUTHERN WYOMING

CITY           SKY/WX    TMP DP  RH WIND       PRES   REMARKS
EVANSTON       PTCLDY    60  31  33 CALM      30.29R
6HR MIN TEMP:  59; 6HR MAX TEMP:  67;

KEMMERER       MOSUNNY   50  30  46 N8        30.30S
FORT BRIDGER   FAIR      58  32  36 W7        30.31R
ROCK SPRINGS   PTCLDY    59  24  26 W3        30.25R
6HR MIN TEMP:  59; 6HR MAX TEMP:  72;

DIXON          FAIR      54  44  67 CALM      30.26R
RAWLINS        PTCLDY    54  37  52 N6        30.25R
6HR MIN TEMP:  52; 6HR MAX TEMP:  70;

SARATOGA       FAIR      50  43  76 S5        30.27R
LARAMIE        PTCLDY    57  42  57 E3        30.28R
6HR MIN TEMP:  53; 6HR MAX TEMP:  64;

CHEYENNE       CLEAR     68  44  42 NW12G23   30.17R
6HR MIN TEMP:  65; 6HR MAX TEMP:  71;

TORRINGTON     PTCLDY    64  50  60 VRB3      30.05R
6HR MIN TEMP:  64; 6HR MAX TEMP:  73;

PINE BLUFFS    FAIR      61  46  59 NW12      30.11R

$$



USA.gov is the U.S. government's official web portal to all federal, state and local government web resources and services.